Location: Centerville
(32.8776°N, 96.6203°W)
Time: 10:47:52
(UTC+00:00)

Cosmos 2237 - Pass Details

Date: 29 October 2021
Orbit: 845 x 856 km, 70.8° (Epoch: 08 December)

Event Time Altitude Azimuth Distance (km) Brightness Sun altitude
Exits shadow 10:14:11 19° 167° (SSE) 1,932 6.1 -31.6°
Drops below altitude 10° 10:15:38 10° 165° (SSE) 2,470 6.7 -31.3°
Sets 10:18:04 0° 164° (SSE) 3,401 7.5 -30.7°
